Regional Weather Roundup
Issued by NWS Newport/Morehead, NC

Current Version | Previous Version | Graphics & Text | Print | Product List | Glossary Off
Versions: 1 2 3 4 5 6 7 8 9 10 11 12 13 14 15 16 17 18 19 20 21 22 23 24 25 26 27 28 29 30 31 32 33 34 35 36 37 38 39 40 41 42 43 44 45 46 47 48 49 50

000
ASUS42 KMHX 012310
RWRMHX
WEATHER ROUNDUP FOR EASTERN NORTH CAROLINA
NATIONAL WEATHER SERVICE NEWPORT/MOREHEAD CITY NC
700 PM EDT WED OCT 01 2014

NOTE: "FAIR" INDICATES FEW OR NO CLOUDS BELOW 12,000 FEET
WITH NO SIGNIFICANT WEATHER AND/OR OBSTRUCTIONS TO VISIBILITY

NCZ015>017-031-032-045>047-102-103-020000-
NORTH COAST

CITY           SKY/WX    TMP DP  RH WIND       PRES   REMARKS
EDENTON        PTCLDY    70  65  85 SE6       29.99S
ELIZABETH CITY CLEAR     69  63  81 NE8       30.00R
KITTY HAWK     PTCLDY    69  65  85 NE7       29.98S
MANTEO         CLEAR     69  64  85 NE9       29.99S

$$

NCZ045>047-081-094-103-104-020000-
CENTRAL COAST

CITY           SKY/WX    TMP DP  RH WIND       PRES   REMARKS
FRISCO         CLEAR     69  63  81 NE9       29.98S
SWANQUARTER      N/A     72 N/A N/A NE2       29.94S

$$

NCZ095-097-098-100-101-020000-
SOUTHERN COAST

CITY           SKY/WX    TMP DP  RH WIND       PRES   REMARKS
BEAUFORT       CLEAR     73  65  75 E3        29.98R
CEDAR ISLAND     N/A     73 N/A N/A NE6       30.03R
JACKSONVILLE   PTCLDY    75  64  68 N5        29.98R
NEWPORT        NOT AVBL
PINEY ISLAND   CLEAR     73  66  78 E5        29.98R HAZE
WILMINGTON     CLEAR     75  66  73 CALM      29.97S


$$

NCZ011>013-027>030-043-044-078>080-089-090>093-098-020000-
COASTAL PLAIN

CITY           SKY/WX    TMP DP  RH WIND       PRES   REMARKS
AHOSKIE        CLEAR     68  65  89 CALM      30.00R
CLINTON        PTCLDY    73  68  83 CALM      30.00R
ELIZABETHTOWN  PTCLDY    75  66  74 CALM      29.99R
GOLDSBORO      CLEAR     73  70  89 CALM      29.98R
GREENVILLE     CLEAR     72  64  78 CALM      30.01S
HAVELOCK       PTCLDY    75  66  73 NE3       29.99R
KENANSVILLE    PTCLDY    71  65  82 CALM      30.00R
KINSTON        CLEAR     73  64  73 CALM      30.00R
NEW BERN       PTCLDY    74  64  71 N5        29.99S
RICHLANDS      PTCLDY    73  63  68 N3        29.99R
ROANOKE RAPIDS NOT AVBL
ROCKY MOUNT    CLEAR     70  65  84 CALM      30.00S
WASHINGTON     CLEAR     69  65  86 CALM      30.00R
WHITEVILLE     CLEAR     73  65  76 CALM      29.98R

$$

AMZ130-135-150-152-154-156-158-170-250-252-270-ANZ085-086-088-633-658-670-020000-
MARINE OBSERVATIONS

STATION/POSITION TIME  TEMP    WIND        PRES    WAVE   SWELL
                       AIR SEA DIR/SP/G            HT/PER HT/PER
                 (UTC) (F)     (DEG/KT/KT) (MB)    (FT/S) (FT/S)
CHESAPEAKE LIGHT 2200   69      40/ 11/ 12 1016.3
BUOY 44014       2300   69 71   10/ 14/ 17 1015.0    5/ 7   2/12
DUCK             2300   71 73   40/ 13/ 14 1014.8
2E DUCK          NOT AVBL
OREGON INLET     2300   70 74   10/  8/ 12 1015.3
BUOY 44095       NOT AVBL
20E OREGON INLET NOT AVBL
HATTERAS CG      2300   71 75   20/ 14/ 17 1015.5
DIAMOND BUOY     2300   71     360/ 17/ 19 1014.8    2/ 7   2/ 7
CAPE LOOKOUT     2200   74      50/ 11/ 13 1014.7
BEAUFORT LAB     2300   76 75   50/  3/  5 1014.5
30 SE NEW RIVER  2200   76 79   50/  6/  8 1014.5
5 SE WRIGHTSVILL NOT AVBL
BUOY 41002       2243   80 81   40/ 10/ 14 1013.1    4/ 6   3/ 6
BUOY 41004       2300   76 81   30/  8/ 10 1015.0    3/ 6   2/ 6

$$


USA.gov is the U.S. government's official web portal to all federal, state and local government web resources and services.